星链-32192 (STARLINK-32192)

导读 | 星芒AI

STARLINK-32192 是 SpaceX Starlink 项目中的一颗低轨卫星,旨在为全球用户提供高速互联网服务。该卫星属于 Starlink 群体的第三批部署任务,运行在约 550 公里的轨道高度,设计寿命约为 5 至 7 年。它采用先进的相控阵天线和激光通信技术,以提升网络性能和连接稳定性。Starlink 项目致力于构建覆盖全球的卫星互联网网络,特别是在偏远和网络基础设施薄弱的地区。

基本信息
目录编号:
60316
目录名称:
STARLINK-32192
国际标识:
2024-133R
轨道中心:
EARTH
卫星名称:
星链-32192 (STARLINK-32192)
卫星全名:
星链-32192 (STARLINK-32192)
卫星状态:
在轨 (已飞行463 天)
发射日期:
2024-07-28 UTC
国别 :
美国 (US)
星等 :
--
轨道信息
数据来源 国际轨道数据 AOE轨道数据
星历时间 2025-11-01T23:48:27+0800
1天前
查看轨道信息
2025-11-01T21:00:00+0800
1天前
查看轨道信息
半长轴 6853.386km 6853.346km
偏心率 0.0001208 0.0001183
轨道倾角 53.160° 53.158°
近地点辐角 85.488° 83.317°
升交点赤经 171.369° 171.915°
平近点角 274.625° 352.000°
近地点 474.423km 474.4km
远地点 476.079km 476.022km
周期 94.106分钟 94.105分钟
每日圈数 15.301887 15.302021
详细信息
卫星平台:
Starlink v2.0 mini
运营商:
太空探索技术公司
运营商所在国:
美国
制造商(研发单位):
太空探索技术公司
制造商所在国:
美国
使用方式:
暂无
卫星简介
星链(Starlink)计划是由太空探索技术公司(SpaceX)提出的一个巨型低轨卫星互联网星座项目,计划在2019年至2024年间在太空搭建由约1.2万颗卫星组成的“星链”网络,其中1584颗将部署在地球上空550千米处的近地轨道,并从2020年开始工作。该卫星仍在工作。
2D轨道图
3D轨道图
轨道高度分析图
轨道倾角分析图
轨道综合分析图
查看轨道综合分析图